Location: ????????
(55.3155°N, 39.2900°E)
Time: 13:39:04
(UTC+00:00)

Meteor 1-19 Rocket - Pass Details

Date: 14 April 2024
Orbit: 805 x 929 km, 81.2° (Epoch: 26 May)

Event Time Altitude Azimuth Distance (km) Brightness Sun altitude
Exits shadow 00:48:14 - 194° (SSW) 2,661 6.3 -12.4°
Reaches altitude 10° 00:48:28 10° 194° (SSW) 2,576 6.3 -12.4°
Maximum altitude 00:54:23 86° 284° (WNW) 929 4.4 -11.7°
Drops below altitude 10° 01:00:29 10° 14° (NNE) 2,644 7.6 -11.0°
Sets 01:02:59 0° 15° (NNE) 3,595 8.3 -10.7°
